Tehachapi, CA

8:25 AM PDT on October 19, 2017 (GMT -0700)
Tehachapi Municipal

Weather History for KTSP - November, 2011

Change the Weather History Date:

Saturday, November 26, 2011

  Actual Average Record
Temperature  
Mean Temperature 45 °F -  
Max Temperature 62 °F 54 °F 73 °F (2014)
Min Temperature 28 °F 32 °F 24 °F (2015)
Degree Days  
Heating Degree Days 20    
Moisture  
Dew Point 21 °F    
Average Humidity 36    
Maximum Humidity 100    
Minimum Humidity 19    
Precipitation  
Precipitation 0.00 in - - ()
Sea Level Pressure  
Sea Level Pressure 30.44 in    
Wind  
Wind Speed 9 mph (ESE)    
Max Wind Speed 22 mph    
Max Gust Speed 30 mph    
Visibility 9 miles    
Events      
Averages and records for this station are not official NWS values.
T = Trace of Precipitation, MM = Missing Value Source: NWS Daily Summary

Daily Weather History Graph

Daily Weather History Graph

Search for Another Location

Airport or City:

Trip Planner

Search our weather history database for the weather conditions in past years. The results will help you decide how hot, cold, wet, or windy it might be!

Date:

Astronomy

Nov. 26, 2011 Rise Set
Actual Time 6:38 AM PST 4:42 PM PST
Civil Twilight 6:11 AM PST 5:10 PM PST
Nautical Twilight 5:40 AM PST 5:41 PM PST
Astronomical Twilight 5:09 AM PST 6:11 PM PST
Moon 8:12 AM PST (11/26) 6:21 PM PST (11/26)
Length of Visible Light 10h 59m
Length of Day
10h 03m
Waxing Crescent, 4% of the Moon is Illuminated
Nov 26
Waxing Crescent
Dec 2
First Quarter
Dec 10
Full
Dec 17
Last Quarter
Dec 24
New

Hourly Weather History & Observations

Time (PST) Temp. Windchill Dew Point Humidity Pressure Visibility Wind Dir Wind Speed Gust Speed Precip Events Conditions
12:15 AM 30.2 °F - 30.2 °F 100% 30.39 in 2.0 mi Calm Calm - N/A   Clear
12:35 AM 28.4 °F - 28.4 °F 100% 30.39 in 0.8 mi Calm Calm - N/A   Mist
12:55 AM 30.2 °F - 30.2 °F 100% 30.39 in 6.0 mi Calm Calm - N/A   Clear
1:15 AM 32.0 °F - 32.0 °F 100% 30.39 in 9.0 mi Calm Calm - N/A   Clear
1:35 AM 32.0 °F - 32.0 °F 100% 30.40 in 10.0 mi Calm Calm - N/A   Clear
1:55 AM 32.0 °F - 32.0 °F 100% 30.39 in 10.0 mi Calm Calm - N/A   Clear
2:35 AM 33.8 °F 26.4 °F 30.2 °F 87% 30.39 in 10.0 mi East 9.2 mph - N/A   Clear
2:55 AM 39.2 °F 32.5 °F 28.4 °F 65% 30.39 in 10.0 mi East 10.4 mph - N/A   Clear
3:15 AM 42.8 °F 37.0 °F 26.6 °F 53% 30.39 in 10.0 mi East 10.4 mph - N/A   Clear
3:35 AM 46.4 °F 41.5 °F 24.8 °F 43% 30.39 in 10.0 mi East 10.4 mph - N/A   Clear
3:55 AM 46.4 °F 41.5 °F 24.8 °F 43% 30.39 in 10.0 mi East 10.4 mph - N/A   Clear
4:15 AM 48.2 °F - 23.0 °F 37% 30.40 in 10.0 mi East 9.2 mph 16.1 mph N/A   Clear
4:55 AM 48.2 °F - 23.0 °F 37% 30.41 in 10.0 mi East 9.2 mph - N/A   Clear
5:15 AM 46.4 °F 41.1 °F 23.0 °F 40% 30.41 in 10.0 mi East 11.5 mph - N/A   Clear
5:35 AM 48.2 °F - 23.0 °F 37% 30.41 in 10.0 mi East 9.2 mph - N/A   Clear
5:55 AM 46.4 °F 41.5 °F 23.0 °F 40% 30.42 in 10.0 mi East 10.4 mph - N/A   Clear
6:15 AM 46.4 °F 41.9 °F 23.0 °F 40% 30.42 in 10.0 mi East 9.2 mph - N/A   Clear
6:35 AM 44.6 °F 38.8 °F 23.0 °F 43% 30.43 in 10.0 mi East 11.5 mph - N/A   Clear
7:15 AM 50.0 °F - 21.2 °F 32% 30.45 in 10.0 mi East 13.8 mph 18.4 mph N/A   Clear
7:35 AM 50.0 °F - 21.2 °F 32% 30.45 in 9.0 mi ESE 12.7 mph - N/A   Clear
7:55 AM 51.8 °F - 23.0 °F 33% 30.46 in 9.0 mi ESE 12.7 mph - N/A   Clear
8:15 AM 53.6 °F - 21.2 °F 28% 30.47 in 9.0 mi ESE 12.7 mph - N/A   Clear
8:35 AM 57.2 °F - 21.2 °F 25% 30.47 in 9.0 mi ESE 11.5 mph 18.4 mph N/A   Clear
8:55 AM 57.2 °F - 21.2 °F 25% 30.47 in 9.0 mi SE 19.6 mph 26.5 mph N/A   Clear
9:15 AM 59.0 °F - 19.4 °F 22% 30.48 in 8.0 mi SE 17.3 mph 26.5 mph N/A   Clear
9:35 AM 59.0 °F - 17.6 °F 20% 30.48 in 9.0 mi ESE 19.6 mph 28.8 mph N/A   Clear
9:55 AM 59.0 °F - 17.6 °F 20% 30.48 in 6.0 mi ESE 17.3 mph 27.6 mph N/A   Haze
10:15 AM 59.0 °F - 17.6 °F 20% 30.48 in 6.0 mi ESE 19.6 mph 27.6 mph N/A   Haze
10:35 AM 59.0 °F - 17.6 °F 20% 30.48 in 7.0 mi SE 20.7 mph 27.6 mph N/A   Clear
10:55 AM 59.0 °F - 19.4 °F 22% 30.47 in 8.0 mi ESE 20.7 mph 27.6 mph N/A   Clear
11:15 AM 60.8 °F - 19.4 °F 20% 30.47 in 8.0 mi ESE 15.0 mph 29.9 mph N/A   Clear
11:55 AM 60.8 °F - 19.4 °F 20% 30.45 in 9.0 mi SE 20.7 mph 26.5 mph N/A   Clear
12:15 PM 60.8 °F - 19.4 °F 20% 30.44 in 8.0 mi SE 19.6 mph 27.6 mph N/A   Clear
12:35 PM 60.8 °F - 19.4 °F 20% 30.44 in 7.0 mi SE 17.3 mph 26.5 mph N/A   Clear
12:55 PM 62.6 °F - 19.4 °F 19% 30.43 in 8.0 mi SE 15.0 mph 26.5 mph N/A   Clear
1:15 PM 62.6 °F - 19.4 °F 19% 30.43 in 10.0 mi SE 17.3 mph 24.2 mph N/A   Clear
1:35 PM 62.6 °F - 19.4 °F 19% 30.42 in 9.0 mi SE 17.3 mph 25.3 mph N/A   Clear
1:55 PM 62.6 °F - 19.4 °F 19% 30.42 in 10.0 mi SE 16.1 mph 23.0 mph N/A   Clear
2:15 PM 62.6 °F - 19.4 °F 19% 30.42 in 8.0 mi SE 17.3 mph 25.3 mph N/A   Clear
2:35 PM 62.6 °F - 19.4 °F 19% 30.42 in 9.0 mi SE 21.9 mph 27.6 mph N/A   Clear
2:55 PM 60.8 °F - 19.4 °F 20% 30.43 in 9.0 mi SE 17.3 mph 25.3 mph N/A   Clear
3:15 PM 60.8 °F - 21.2 °F 22% 30.43 in 9.0 mi SE 13.8 mph 23.0 mph N/A   Clear
3:35 PM 59.0 °F - 19.4 °F 22% 30.43 in 8.0 mi ESE 13.8 mph 21.9 mph N/A   Clear
4:15 PM 57.2 °F - 21.2 °F 25% 30.43 in 9.0 mi SE 13.8 mph 18.4 mph N/A   Clear
4:35 PM 55.4 °F - 19.4 °F 25% 30.43 in 8.0 mi SE 15.0 mph 20.7 mph N/A   Clear
4:55 PM 55.4 °F - 19.4 °F 25% 30.43 in 9.0 mi ESE 9.2 mph 17.3 mph N/A   Clear
5:15 PM 53.6 °F - 19.4 °F 26% 30.44 in 10.0 mi SE 10.4 mph 18.4 mph N/A   Clear
5:35 PM 51.8 °F - 21.2 °F 30% 30.44 in 10.0 mi ESE 6.9 mph - N/A   Clear
5:55 PM 51.8 °F - 21.2 °F 30% 30.44 in 10.0 mi East 8.1 mph - N/A   Clear
6:15 PM 51.8 °F - 19.4 °F 28% 30.45 in 10.0 mi East 10.4 mph - N/A   Clear
6:35 PM 51.8 °F - 19.4 °F 28% 30.45 in 10.0 mi East 11.5 mph - N/A   Clear
6:55 PM 53.6 °F - 19.4 °F 26% 30.45 in 10.0 mi East 12.7 mph 16.1 mph N/A   Clear
7:15 PM 53.6 °F - 19.4 °F 26% 30.46 in 10.0 mi East 12.7 mph 18.4 mph N/A   Clear
7:35 PM 51.8 °F - 19.4 °F 28% 30.46 in 10.0 mi East 9.2 mph - N/A   Clear
8:15 PM 50.0 °F - 19.4 °F 30% 30.47 in 10.0 mi East 11.5 mph - N/A   Clear
8:35 PM 50.0 °F - 19.4 °F 30% 30.47 in 10.0 mi East 11.5 mph - N/A   Clear
8:55 PM 50.0 °F - 19.4 °F 30% 30.47 in 10.0 mi ESE 12.7 mph 17.3 mph N/A   Clear
10:15 PM 50.0 °F - 17.6 °F 28% 30.46 in 10.0 mi East 11.5 mph - N/A   Clear
10:35 PM 50.0 °F - 15.8 °F 26% 30.46 in 10.0 mi ESE 12.7 mph 17.3 mph N/A   Clear
10:55 PM 50.0 °F - 15.8 °F 26% 30.46 in 10.0 mi East 12.7 mph - N/A   Clear
11:15 PM 50.0 °F - 15.8 °F 26% 30.46 in 10.0 mi East 13.8 mph 17.3 mph N/A   Clear
11:35 PM 51.8 °F - 14.0 °F 22% 30.46 in 10.0 mi East 16.1 mph 21.9 mph N/A   Clear
11:55 PM 50.0 °F - 14.0 °F 24% 30.46 in 10.0 mi East 16.1 mph 21.9 mph N/A   Clear